User: anonymous   Login
Location: Clyde
(45.1830°S, 169.3170°E)
Time: 15:27:38
(UTC+13:00)
Language:

Cosmos 1151 Rocket - Orbit

View from above orbital plane
View from above orbital plane
View from above satellite
View from above satellite

Ground track
Ground track

The orbit data is extracted from the following two-line orbital elements,

1 11672U 80005B   19295.74258675  .00000067  00000-0  45840-5 0  9999
2 11672  82.5168 349.8960 0016491 355.6202   4.4868 14.87973548150914
Epoch (UTC): 22 October 2019 17:49:19
Eccentricity: 0.0016491
inclination: 82.5168°
perigee height: 593 km
apogee height: 616 km
right ascension of ascending node: 349.8960°
argument of perigee: 355.6202°
revolutions per day: 14.87973548
mean anomaly at epoch: 4.4868°
orbit number at epoch: 15091

The dashed part of the orbit path shows where the satellite is in the earth's shadow,  

DLR